Regional Weather Roundup
Issued by NWS

Home | Current Version | Previous Version | Text Only | Print | Product List | Glossary Off
Versions: 1 2 3 4 5 6 7 8 9 10 11 12 13 14 15 16 17 18 19 20 21 22 23 24 25 26 27 28 29 30 31 32 33 34 35 36 37 38 39 40 41 42 43 44 45 46 47 48 49 50

194
ASUS43 KDTX 231510
RWRMI
MICHIGAN HOURLY REGIONAL WEATHER ROUNDUP
NATIONAL WEATHER SERVICE DETROIT/PONTIAC MI
ISSUED BY NATIONAL WEATHER SERVICE GRAND RAPIDS MI
1100 AM EDT WED AUG 23 2017

NOTE: "FAIR" INDICATES FEW OR NO CLOUDS BELOW 12,000 FEET WITH NO
SIGNIFICANT WEATHER AND/OR OBSTRUCTION TO VISIBILITY.

MIZ047>049-052>055-059>063-066>070-074>076-081>083-231600-
SOUTHEAST LOWER MICHIGAN

CITY           SKY/WX    TMP DP  RH WIND       PRES   REMARKS
ADRIAN         MOSUNNY   70  53  54 NW12G23   29.99S
ALMA           MOSUNNY   66  54  65 W17G23    29.96S
ANN ARBOR      SUNNY     70  53  54 W15G24    29.96S
BAD AXE        MOSUNNY   65  53  64 N13G18    29.93R
DETROIT CITY   MOSUNNY   70  53  54 W12       29.94S
DETROIT        MOSUNNY   71  54  54 W14       29.96R
FLINT          MOSUNNY   67  55  65 NW16      29.95S
GROSSE ILE     SUNNY     71  53  53 NW13      29.95S
HILLSDALE      MOSUNNY   68  52  56 W15       29.99S
HOWELL         MOSUNNY   68  54  60 NW14G21   29.96S

CITY           SKY/WX    TMP DP  RH WIND       PRES   REMARKS
JACKSON        SUNNY     68  53  58 W12       29.98S
LANSING        MOSUNNY   69  54  58 NW9       29.98S
MASON          SUNNY     70  55  58 NW14      29.97S
MONROE         SUNNY     70  56  60 NW10G16   29.96S
MT. CLEMENS    MOSUNNY   70  56  61 NW13      29.92S
PONTIAC        PTSUNNY   67  54  63 NW17G24   29.94S
PORT HOPE        N/A     65  55  70 NW12G21   29.90R
PORT HURON     PTSUNNY   68  55  64 W5        29.93S
TRI CITIES     SUNNY     67  57  70 NW15      29.95S
YPSILANTI      SUNNY     73  56  54 NW13      29.96S
$$
MIZ043>046-050>051-056>058-064>065-071>073-077>080-231600-
SOUTHWEST LOWER MICHIGAN

CITY           SKY/WX    TMP DP  RH WIND       PRES   REMARKS
BATTLE CREEK   PTSUNNY   70  56  61 NW12      30.00S
BENTON HARBOR  SUNNY     71  55  56 W9G17     30.02R
BIG RAPIDS     CLOUDY    63  53  69 NW5       29.97S
COLDWATER      MOSUNNY   70  55  58 NW9       30.00S
HOLLAND        PTSUNNY   69  55  60 W10G16    30.01R
GRAND RAPIDS   MOSUNNY   69  54  58 NW17      29.98S
KALAMAZOO      MOSUNNY   72  52  49 NW17G24   30.00S
MARSHALL       PTSUNNY   68  54  60 NW9G20    29.98F
MOUNT PLEASANT PTSUNNY   68  54  60 W9        29.95S
MUSKEGON       MOSUNNY   70  53  54 NW15G22   29.99R
STURGIS        MOSUNNY   70  55  59 NW7       30.00S
$$
MIZ016>042-231600-
NORTHERN LOWER MICHIGAN

CITY           SKY/WX    TMP DP  RH WIND       PRES   REMARKS
ALPENA         PTSUNNY   64  53  67 NW13G20   29.90R
BEAVER ISLAND  PTSUNNY   61  50  65 NW10G16   29.94S
BELLAIRE       MOSUNNY   63  50  63 NW8       29.95S
CADILLAC       PTSUNNY   65  50  56 N14       29.96S
CHARLEVOIX     MOSUNNY   62  50  64 NW15      29.97S
GAYLORD        CLOUDY    60  46  59 W13G22    29.94R
HOUGHTON LAKE  PTSUNNY   62  51  67 NW13      29.95S
MANISTEE       MOSUNNY   68  53  58 NW9G20    29.98R
OSCODA         MOSUNNY   67  51  55 NW16G23   29.90S
PELLSTON       CLOUDY    61  51  70 NW16      29.93R
TRAVERSE CITY  PTSUNNY   64  51  62 N10       29.95R
LUDINGTON      PTSUNNY   66  54  66 NW8       29.99R
$$
MIZ007>008-015-231600-
EASTERN UPPER MICHIGAN

CITY           SKY/WX    TMP DP  RH WIND       PRES   REMARKS
KINROSS        CLOUDY    58  50  75 NW14      29.89R
MACKINAC ISLAN CLOUDY    59  50  72 NW14G20   29.91R
NEWBERRY       CLOUDY    57  52  84 NW8G21    29.92R
S. S. MARIE    CLOUDY    57  51  80 NW14G24   29.88R
$$
MIZ004>006-011>014-085-231600-
CENTRAL UPPER MICHIGAN

CITY           SKY/WX    TMP DP  RH WIND       PRES   REMARKS
MANISTIQUE     PTSUNNY   60  43  54 NW14G24   29.94R
ESCANABA       SUNNY     62  48  60 NW14G20   29.97R
MENOMINEE      MOSUNNY   62  51  67 N10       30.00S
SAWYER-GWINN   MOSUNNY   57  46  67 N10       29.99R
$$
MIZ001>003-009>011-084-231600-
WESTERN UPPER MICHIGAN

CITY           SKY/WX    TMP DP  RH WIND       PRES   REMARKS
IRON MOUNTAIN  MOSUNNY   62  46  55 NW15      30.00R
HOUGHTON       SUNNY     57  43  59 NW16G25   30.00R
COPPER HARBOR    N/A     56  47  71 N18       29.99R
IRONWOOD       LGT RAIN  57  52  83 NW7       30.07R
$$

ABBREVIATIONS USED IN REMARKS
   TC - TEMPERATURE IN CELSIUS
  WCI - WIND CHILL INDEX
   HX - HEAT INDEX
  VSB - VISIBILITY





USA.gov is the U.S. government's official web portal to all federal, state and local government web resources and services.